Regional Weather Roundup
Issued by NWS

Home | Current Version | Previous Version | Graphics & Text | Print | Product List | Glossary On
Versions: 1 2 3 4 5 6 7 8 9 10 11 12 13 14 15 16 17 18 19 20 21 22 23 24 25 26 27 28 29 30 31 32 33 34 35 36 37 38 39 40 41 42 43 44 45 46 47 48 49 50
823
ASUS43 KBIS 190410
RWRND

NORTH DAKOTA REGIONAL WEATHER ROUNDUP
NATIONAL WEATHER SERVICE BISMARCK ND
1000 PM CST SAT NOV 18 2017

NOTE: "FAIR" INDICATES FEW OR NO CLOUDS BELOW 12,000 FEET WITH NO
SIGNIFICANT WEATHER AND/OR OBSTRUCTIONS TO VISIBILITY.


NDZ001>003-009>011-017-190500-
NORTHWEST NORTH DAKOTA

CITY           SKY/WX    TMP DP  RH WIND       PRES   REMARKS
WILLISTON      CLOUDY    27  19  72 W10       30.00F WCI  17
MINOT          CLEAR     26  17  68 W12       29.98F WCI  16
MINOT AFB      CLEAR     19  14  81 W9        29.97F WCI   8
$$

NDZ018>021-031>035-040>046-190500-
SOUTHWEST NORTH DAKOTA

CITY           SKY/WX    TMP DP  RH WIND       PRES   REMARKS
BISMARCK       CLOUDY    25  18  74 W3        30.06S
DICKINSON      CLOUDY    27  21  78 W10       30.00S WCI  17
GARRISON         N/A     22  17  81 W10       30.00S WCI  11
HETTINGER ARPT CLOUDY    19  15  84 NW5       30.08S WCI  12
$$

NDZ004>008-012>016-024-026-027-054-190500-
NORTHEAST NORTH DAKOTA

CITY           SKY/WX    TMP DP  RH WIND       PRES   REMARKS
GRAND FORKS    CLEAR     13   7  77 W9        30.04S WCI   1
GRND FRKS AFB  CLEAR     16   8  69 NW13      30.04R WCI   2
DEVILS LAKE    CLEAR     12   8  84 W7        30.01F WCI   1
$$

NDZ022-023-025-028>030-036>039-047>053-190500-
SOUTHEAST NORTH DAKOTA

CITY           SKY/WX    TMP DP  RH WIND       PRES   REMARKS
FARGO          CLOUDY    15   9  76 W7        30.06F WCI   5
JAMESTOWN      CLEAR     16  12  84 SW7       30.03F WCI   6
$$





USA.gov is the U.S. government's official web portal to all federal, state and local government web resources and services.